QPF
0.02 0.02 0.03 0.03 0.03 0.02 0.02 0.03 0.05 0.06 0.06 0.06 0.06 0.04 0.04 0.06 0.05 0.03 0.03 0.02 0.01 0.01 0.01 0.01 0.01 0.01 0.02 0.03 0.03 0.02 0.04 0.04 0.04 0.04 0.05 0.05 0.05 0.05 0.05 0.06 0.04 0.04 0.04 0.04
0.04 0.03 0.02 0.01 0.02 0.03 0.03 0.04 0.05 0.05 0.05 0.07 0.08 0.06 0.05 0.05 0.05 0.02 0.02 0.01 0.01 0.01 0.01 0.01 0.01 0.01 0.01 0.01 0.02 0.02 0.02 0.03 0.03 0.04 0.05 0.06 0.05 0.05 0.05 0.05 0.06 0.05 0.04 0.04
0.06 0.03 0.02 0.02 0.02 0.03 0.03 0.03 0.04 0.06 0.07 0.08 0.10 0.06 0.06 0.05 0.03 0.01 0.01 0.01 0.01 0.01 0.02 0.01 0.01 0.01 0.01 0.01 0.01 0.01 0.01 0.02 0.02 0.03 0.04 0.05 0.05 0.06 0.06 0.06 0.05 0.06 0.05 0.04
0.06 0.04 0.05 0.05 0.02 0.02 0.03 0.03 0.02 0.03 0.04 0.05 0.11 0.07 0.04 0.04 0.03 0.01 0.02 0.02 0.02 0.03 0.03 0.02 0.02 0.02 0.02 0.01 0.01 0.01 0.01 0.01 0.01 0.02 0.02 0.03 0.04 0.05 0.05 0.07 0.06 0.06 0.06 0.05
0.04 0.05 0.05 0.04 0.02 0.01 0.03 0.04 0.02 0.04 0.04 0.03 0.05 0.06 0.06 0.03 0.02 0.02 0.02 0.03 0.03 0.03 0.02 0.02 0.02 0.02 0.02 0.03 0.02 0.01 0.01 0.01 0.01 0.01 0.01 0.03 0.03 0.04 0.05 0.06 0.06 0.05 0.05 0.05
0.05 0.05 0.07 0.06 0.02 0.01 0.03 0.06 0.06 0.06 0.06 0.04 0.05 0.08 0.06 0.04 0.02 0.02 0.02 0.02 0.01 0.01 0.01 0.01 0.01 0.02 0.02 0.02 0.02 0.02 0.01 0.01 0.01 0.01 0.02 0.02 0.03 0.04 0.04 0.04 0.05 0.05 0.05 0.06
0.05 0.07 0.07 0.05 0.02 0.02 0.07 0.08 0.07 0.05 0.06 0.06 0.06 0.07 0.06 0.05 0.02 0.01 0.01 0.01 0.01 0.01 0.01 0.01 0.01 0.01 0.02 0.03 0.02 0.02 0.01 0.01 0.02 0.02 0.02 0.03 0.04 0.04 0.03 0.04 0.06 0.06 0.05 0.06
0.04 0.06 0.08 0.07 0.03 0.04 0.06 0.03 0.03 0.03 0.02 0.03 0.03 0.02 0.02 0.04 0.02 0.01 0.00 0.00 0.00 0.00 0.01 0.01 0.01 0.02 0.02 0.03 0.02 0.03 0.03 0.03 0.03 0.03 0.02 0.03 0.05 0.05 0.04 0.04 0.05 0.06 0.06 0.06
0.06 0.09 0.12 0.11 0.07 0.05 0.04 0.03 0.02 0.01 0.01 0.03 0.05 0.05 0.04 0.04 0.03 0.01 0.01 0.01 0.00 0.01 0.01 0.01 0.01 0.01 0.03 0.02 0.02 0.03 0.03 0.04 0.03 0.03 0.02 0.02 0.04 0.05 0.06 0.06 0.06 0.05 0.06 0.06
0.05 0.06 0.08 0.09 0.07 0.04 0.02 0.02 0.01 0.00 0.00 0.01 0.04 0.06 0.06 0.05 0.04 0.02 0.02 0.01 0.01 0.01 0.00 0.01 0.01 0.01 0.02 0.02 0.02 0.03 0.04 0.04 0.04 0.02 0.02 0.02 0.04 0.03 0.04 0.05 0.05 0.05 0.05 0.04
0.05 0.04 0.03 0.02 0.03 0.03 0.01 0.01 0.01 0.00 0.01 0.01 0.03 0.05 0.06 0.05 0.04 0.02 0.01 0.02 0.01 0.01 0.01 0.01 0.01 0.01 0.01 0.01 0.02 0.03 0.04 0.05 0.05 0.04 0.03 0.03 0.03 0.03 0.03 0.04 0.04 0.04 0.04 0.03
0.03 0.03 0.03 0.03 0.02 0.01 0.01 0.01 0.01 0.01 0.01 0.01 0.02 0.03 0.05 0.05 0.05 0.03 0.02 0.02 0.01 0.01 0.01 0.01 0.01 0.02 0.02 0.02 0.03 0.04 0.04 0.04 0.04 0.04 0.04 0.04 0.03 0.02 0.02 0.02 0.02 0.03 0.04 0.04
0.03 0.02 0.02 0.02 0.01 0.01 0.01 0.01 0.02 0.01 0.02 0.02 0.03 0.03 0.03 0.05 0.06 0.03 0.01 0.01 0.01 0.01 0.01 0.02 0.02 0.02 0.01 0.01 0.02 0.04 0.05 0.04 0.04 0.04 0.04 0.04 0.03 0.02 0.02 0.02 0.02 0.02 0.02 0.04
0.02 0.02 0.02 0.02 0.01 0.01 0.01 0.01 0.02 0.02 0.02 0.03 0.04 0.03 0.03 0.03 0.03 0.02 0.01 0.01 0.01 0.01 0.01 0.02 0.02 0.01 0.01 0.01 0.02 0.03 0.05 0.04 0.04 0.04 0.04 0.03 0.03 0.02 0.02 0.02 0.02 0.02 0.02 0.02
0.02 0.02 0.01 0.01 0.01 0.01 0.01 0.01 0.02 0.02 0.02 0.02 0.02 0.02 0.03 0.04 0.03 0.02 0.01 0.01 0.01 0.02 0.01 0.01 0.02 0.01 0.01 0.02 0.03 0.04 0.04 0.04 0.04 0.04 0.04 0.04 0.04 0.03 0.02 0.02 0.02 0.04 0.04 0.03
0.01 0.01 0.01 0.01 0.01 0.02 0.02 0.02 0.02 0.02 0.02 0.02 0.02 0.03 0.03 0.03 0.02 0.02 0.01 0.02 0.03 0.04 0.02 0.02 0.02 0.02 0.02 0.03 0.04 0.05 0.05 0.05 0.04 0.05 0.05 0.05 0.05 0.03 0.02 0.02 0.02 0.03 0.03 0.03
0.02 0.01 0.01 0.01 0.01 0.01 0.02 0.02 0.02 0.02 0.02 0.03 0.03 0.03 0.03 0.03 0.03 0.03 0.02 0.02 0.03 0.04 0.03 0.02 0.02 0.02 0.02 0.03 0.04 0.05 0.05 0.05 0.05 0.04 0.04 0.04 0.04 0.03 0.02 0.02 0.03 0.03 0.03 0.02
0.02 0.02 0.01 0.01 0.01 0.01 0.02 0.02 0.03 0.03 0.02 0.02 0.02 0.03 0.03 0.04 0.04 0.04 0.04 0.03 0.03 0.04 0.04 0.03 0.03 0.03 0.03 0.03 0.04 0.05 0.05 0.05 0.05 0.04 0.04 0.04 0.03 0.02 0.02 0.02 0.02 0.02 0.03 0.02
0.01 0.01 0.01 0.01 0.01 0.01 0.02 0.03 0.03 0.03 0.04 0.03 0.03 0.03 0.03 0.04 0.04 0.05 0.04 0.05 0.05 0.06 0.07 0.06 0.05 0.05 0.05 0.05 0.04 0.05 0.05 0.05 0.05 0.04 0.04 0.04 0.03 0.03 0.02 0.01 0.02 0.02 0.03 0.02
0.01 0.01 0.01 0.01 0.01 0.02 0.03 0.03 0.04 0.05 0.06 0.04 0.03 0.03 0.04 0.05 0.04 0.04 0.04 0.06 0.07 0.07 0.07 0.07 0.07 0.07 0.06 0.05 0.04 0.04 0.05 0.05 0.05 0.04 0.03 0.03 0.04 0.03 0.03 0.02 0.02 0.03 0.04 0.03
0.01 0.01 0.01 0.02 0.02 0.03 0.03 0.04 0.05 0.06 0.07 0.07 0.06 0.05 0.05 0.06 0.05 0.05 0.05 0.05 0.05 0.05 0.05 0.06 0.08 0.08 0.06 0.05 0.03 0.03 0.04 0.04 0.04 0.05 0.05 0.04 0.04 0.04 0.04 0.04 0.03 0.04 0.05 0.05
0.01 0.01 0.02 0.03 0.03 0.03 0.03 0.03 0.03 0.03 0.03 0.04 0.04 0.04 0.05 0.06 0.05 0.05 0.05 0.05 0.04 0.03 0.03 0.04 0.05 0.06 0.06 0.04 0.04 0.03 0.03 0.03 0.03 0.05 0.07 0.06 0.06 0.06 0.05 0.05 0.04 0.04 0.04 0.05
0.02 0.03 0.03 0.03 0.02 0.03 0.03 0.03 0.03 0.03 0.03 0.03 0.03 0.04 0.06 0.06 0.06 0.06 0.05 0.04 0.03 0.03 0.02 0.02 0.03 0.04 0.04 0.04 0.05 0.05 0.04 0.04 0.04 0.05 0.07 0.07 0.06 0.05 0.05 0.04 0.04 0.04 0.04 0.04
0.02 0.03 0.02 0.02 0.02 0.03 0.04 0.03 0.02 0.02 0.02 0.03 0.03 0.04 0.05 0.05 0.04 0.04 0.04 0.03 0.03 0.03 0.02 0.02 0.03 0.04 0.04 0.03 0.05 0.05 0.05 0.04 0.04 0.06 0.09 0.10 0.07 0.06 0.05 0.03 0.03 0.04 0.04 0.03
0.02 0.02 0.02 0.02 0.03 0.04 0.04 0.03 0.02 0.02 0.03 0.03 0.03 0.03 0.04 0.04 0.04 0.04 0.03 0.03 0.02 0.02 0.02 0.02 0.03 0.04 0.03 0.04 0.04 0.04 0.05 0.05 0.06 0.07 0.07 0.08 0.07 0.06 0.05 0.05 0.05 0.04 0.04 0.03
0.02 0.02 0.03 0.03 0.03 0.04 0.03 0.03 0.03 0.03 0.03 0.04 0.04 0.03 0.03 0.03 0.02 0.02 0.02 0.02 0.02 0.02 0.02 0.04 0.05 0.05 0.04 0.03 0.03 0.03 0.03 0.05 0.07 0.08 0.06 0.06 0.06 0.06 0.06 0.06 0.05 0.04 0.03 0.02
0.02 0.02 0.03 0.03 0.03 0.04 0.05 0.05 0.04 0.04 0.04 0.04 0.03 0.02 0.02 0.02 0.02 0.01 0.01 0.01 0.01 0.01 0.02 0.04 0.05 0.04 0.03 0.02 0.03 0.02 0.03 0.04 0.05 0.06 0.06 0.05 0.05 0.05 0.05 0.05 0.05 0.04 0.03 0.03
MSLP
1001.60 1000.77 1000.05 999.46 999.02 998.74 998.58 998.49 998.44 998.39 998.32 998.22 998.10 997.99 997.93 997.94 998.04 998.23 998.53 998.92 999.37 999.87 1000.40 1000.96 1001.54 1002.15 1002.80 1003.48 1004.20 1004.94 1005.68 1006.42 1007.13 1007.81 1008.43 1009.01 1009.55 1010.07 1010.58 1011.10 1011.63 1012.17 1012.72 1013.26
1002.06 1001.12 1000.23 999.46 998.85 998.39 998.10 997.94 997.88 997.90 997.95 998.04 998.15 998.27 998.44 998.64 998.90 999.20 999.56 999.95 1000.37 1000.79 1001.23 1001.66 1002.11 1002.56 1003.05 1003.56 1004.11 1004.70 1005.32 1005.96 1006.61 1007.25 1007.89 1008.51 1009.12 1009.72 1010.31 1010.90 1011.49 1012.08 1012.66 1013.23
1002.32 1001.32 1000.36 999.50 998.78 998.24 997.89 997.71 997.69 997.78 997.97 998.22 998.52 998.84 999.19 999.55 999.94 1000.33 1000.73 1001.13 1001.51 1001.88 1002.23 1002.56 1002.87 1003.18 1003.50 1003.85 1004.23 1004.65 1005.12 1005.64 1006.19 1006.79 1007.40 1008.04 1008.69 1009.34 1009.99 1010.65 1011.29 1011.92 1012.54 1013.14
1002.48 1001.48 1000.51 999.64 998.91 998.36 998.02 997.87 997.90 998.08 998.38 998.76 999.20 999.66 1000.13 1000.60 1001.06 1001.51 1001.93 1002.31 1002.67 1002.98 1003.25 1003.48 1003.68 1003.86 1004.03 1004.22 1004.44 1004.70 1005.02 1005.41 1005.86 1006.38 1006.95 1007.58 1008.24 1008.93 1009.63 1010.33 1011.01 1011.68 1012.34 1012.97
1002.65 1001.70 1000.78 999.96 999.27 998.78 998.48 998.39 998.49 998.75 999.12 999.59 1000.10 1000.63 1001.16 1001.67 1002.15 1002.59 1002.99 1003.35 1003.66 1003.91 1004.11 1004.26 1004.36 1004.43 1004.48 1004.54 1004.62 1004.75 1004.94 1005.20 1005.56 1006.00 1006.53 1007.14 1007.80 1008.50 1009.23 1009.96 1010.68 1011.38 1012.06 1012.71
1002.93 1002.05 1001.21 1000.47 999.87 999.46 999.24 999.21 999.37 999.67 1000.09 1000.58 1001.11 1001.64 1002.15 1002.63 1003.07 1003.47 1003.81 1004.10 1004.35 1004.53 1004.67 1004.74 1004.77 1004.77 1004.73 1004.70 1004.68 1004.71 1004.80 1004.98 1005.26 1005.64 1006.13 1006.71 1007.37 1008.09 1008.83 1009.59 1010.34 1011.06 1011.76 1012.44
1003.32 1002.54 1001.80 1001.16 1000.66 1000.33 1000.19 1000.22 1000.41 1000.73 1001.14 1001.60 1002.09 1002.56 1003.00 1003.39 1003.74 1004.04 1004.30 1004.50 1004.66 1004.78 1004.85 1004.87 1004.85 1004.80 1004.71 1004.63 1004.56 1004.53 1004.57 1004.70 1004.94 1005.29 1005.76 1006.34 1007.00 1007.73 1008.49 1009.28 1010.05 1010.80 1011.52 1012.21
1003.81 1003.12 1002.48 1001.95 1001.55 1001.30 1001.22 1001.29 1001.49 1001.78 1002.15 1002.54 1002.94 1003.30 1003.62 1003.90 1004.12 1004.30 1004.44 1004.55 1004.62 1004.67 1004.68 1004.66 1004.61 1004.53 1004.43 1004.34 1004.25 1004.22 1004.25 1004.37 1004.60 1004.96 1005.43 1006.02 1006.70 1007.45 1008.25 1009.06 1009.87 1010.65 1011.40 1012.11
1004.31 1003.72 1003.19 1002.75 1002.44 1002.26 1002.21 1002.29 1002.47 1002.72 1003.01 1003.31 1003.59 1003.83 1004.02 1004.16 1004.25 1004.30 1004.32 1004.32 1004.31 1004.28 1004.25 1004.19 1004.13 1004.05 1003.96 1003.88 1003.82 1003.81 1003.87 1004.01 1004.27 1004.64 1005.14 1005.76 1006.47 1007.26 1008.10 1008.96 1009.82 1010.64 1011.42 1012.16
1004.75 1004.26 1003.83 1003.48 1003.24 1003.10 1003.08 1003.15 1003.29 1003.48 1003.68 1003.88 1004.04 1004.15 1004.21 1004.22 1004.19 1004.12 1004.04 1003.95 1003.86 1003.77 1003.69 1003.62 1003.55 1003.47 1003.41 1003.36 1003.33 1003.36 1003.45 1003.64 1003.93 1004.34 1004.88 1005.54 1006.30 1007.14 1008.03 1008.95 1009.86 1010.74 1011.57 1012.34
1005.07 1004.69 1004.35 1004.08 1003.89 1003.78 1003.76 1003.80 1003.90 1004.02 1004.14 1004.25 1004.31 1004.32 1004.27 1004.18 1004.05 1003.90 1003.73 1003.57 1003.41 1003.28 1003.16 1003.06 1002.98 1002.91 1002.86 1002.84 1002.85 1002.91 1003.04 1003.26 1003.59 1004.03 1004.61 1005.30 1006.11 1007.00 1007.96 1008.94 1009.92 1010.87 1011.76 1012.58
1005.26 1004.98 1004.73 1004.51 1004.36 1004.27 1004.23 1004.25 1004.29 1004.35 1004.41 1004.44 1004.43 1004.38 1004.27 1004.12 1003.93 1003.72 1003.50 1003.29 1003.09 1002.91 1002.75 1002.62 1002.52 1002.44 1002.38 1002.36 1002.38 1002.46 1002.61 1002.85 1003.20 1003.67 1004.28 1005.00 1005.85 1006.79 1007.80 1008.85 1009.91 1010.93 1011.89 1012.77
1005.35 1005.15 1004.97 1004.80 1004.67 1004.57 1004.52 1004.50 1004.50 1004.51 1004.52 1004.51 1004.46 1004.38 1004.25 1004.08 1003.87 1003.64 1003.39 1003.13 1002.89 1002.66 1002.46 1002.28 1002.14 1002.02 1001.93 1001.89 1001.90 1001.98 1002.13 1002.38 1002.74 1003.22 1003.84 1004.59 1005.47 1006.45 1007.51 1008.62 1009.74 1010.84 1011.87 1012.81
1005.37 1005.25 1005.11 1004.97 1004.84 1004.73 1004.64 1004.58 1004.55 1004.52 1004.51 1004.48 1004.43 1004.34 1004.22 1004.05 1003.85 1003.61 1003.34 1003.05 1002.76 1002.48 1002.21 1001.96 1001.75 1001.57 1001.44 1001.36 1001.34 1001.39 1001.54 1001.79 1002.15 1002.65 1003.28 1004.05 1004.95 1005.97 1007.07 1008.23 1009.40 1010.55 1011.64 1012.63
1005.39 1005.31 1005.19 1005.05 1004.91 1004.77 1004.64 1004.55 1004.48 1004.43 1004.39 1004.37 1004.33 1004.26 1004.16 1004.01 1003.81 1003.56 1003.26 1002.93 1002.58 1002.22 1001.86 1001.53 1001.22 1000.97 1000.77 1000.64 1000.59 1000.64 1000.78 1001.04 1001.43 1001.94 1002.60 1003.40 1004.33 1005.37 1006.50 1007.68 1008.89 1010.08 1011.20 1012.24
1005.44 1005.37 1005.24 1005.08 1004.90 1004.72 1004.56 1004.42 1004.32 1004.25 1004.21 1004.19 1004.16 1004.11 1004.02 1003.88 1003.67 1003.40 1003.05 1002.65 1002.21 1001.74 1001.27 1000.83 1000.42 1000.08 999.82 999.65 999.59 999.65 999.82 1000.13 1000.56 1001.14 1001.85 1002.69 1003.65 1004.72 1005.86 1007.06 1008.28 1009.47 1010.61 1011.65
1005.52 1005.43 1005.27 1005.07 1004.85 1004.62 1004.42 1004.24 1004.11 1004.02 1003.97 1003.95 1003.93 1003.88 1003.79 1003.63 1003.38 1003.04 1002.61 1002.11 1001.54 1000.94 1000.34 999.77 999.26 998.84 998.52 998.34 998.30 998.41 998.66 999.06 999.60 1000.27 1001.07 1001.99 1003.00 1004.10 1005.25 1006.44 1007.64 1008.81 1009.92 1010.95
1005.61 1005.48 1005.28 1005.04 1004.77 1004.50 1004.25 1004.04 1003.88 1003.78 1003.72 1003.68 1003.64 1003.57 1003.44 1003.23 1002.91 1002.47 1001.92 1001.27 1000.55 999.79 999.04 998.34 997.73 997.24 996.90 996.74 996.76 996.96 997.34 997.88 998.57 999.39 1000.32 1001.34 1002.42 1003.56 1004.72 1005.89 1007.04 1008.15 1009.21 1010.19
1005.67 1005.50 1005.27 1004.99 1004.69 1004.38 1004.10 1003.87 1003.69 1003.56 1003.48 1003.41 1003.34 1003.22 1003.02 1002.71 1002.28 1001.70 1001.00 1000.18 999.28 998.36 997.46 996.63 995.93 995.39 995.05 994.94 995.06 995.40 995.94 996.67 997.54 998.54 999.62 1000.76 1001.93 1003.11 1004.27 1005.41 1006.50 1007.54 1008.52 1009.43
1005.68 1005.49 1005.23 1004.93 1004.61 1004.29 1004.00 1003.75 1003.55 1003.40 1003.29 1003.19 1003.06 1002.87 1002.57 1002.15 1001.57 1000.84 999.97 998.97 997.90 996.81 995.76 994.82 994.04 993.47 993.15 993.12 993.35 993.84 994.56 995.48 996.56 997.74 998.98 1000.24 1001.49 1002.71 1003.87 1004.96 1005.99 1006.95 1007.84 1008.68
1005.63 1005.43 1005.17 1004.87 1004.55 1004.24 1003.95 1003.69 1003.49 1003.32 1003.18 1003.02 1002.83 1002.55 1002.16 1001.61 1000.89 1000.00 998.96 997.80 996.57 995.33 994.16 993.12 992.29 991.70 991.42 991.45 991.79 992.42 993.30 994.40 995.64 996.98 998.35 999.72 1001.04 1002.28 1003.43 1004.48 1005.44 1006.32 1007.14 1007.91
1005.51 1005.33 1005.09 1004.81 1004.51 1004.22 1003.94 1003.70 1003.49 1003.30 1003.13 1002.93 1002.67 1002.31 1001.81 1001.15 1000.31 999.29 998.12 996.82 995.47 994.12 992.86 991.76 990.88 990.29 990.03 990.11 990.53 991.26 992.25 993.46 994.82 996.26 997.72 999.15 1000.49 1001.74 1002.86 1003.87 1004.78 1005.60 1006.36 1007.09
1005.35 1005.19 1004.99 1004.75 1004.48 1004.21 1003.96 1003.72 1003.51 1003.32 1003.11 1002.87 1002.56 1002.13 1001.56 1000.82 999.89 998.79 997.53 996.16 994.74 993.33 992.03 990.89 990.00 989.40 989.14 989.24 989.69 990.45 991.49 992.74 994.13 995.59 997.07 998.49 999.83 1001.05 1002.14 1003.11 1003.98 1004.77 1005.51 1006.24
1005.17 1005.04 1004.87 1004.67 1004.43 1004.19 1003.95 1003.73 1003.51 1003.30 1003.08 1002.81 1002.46 1001.99 1001.38 1000.61 999.65 998.53 997.26 995.88 994.45 993.05 991.75 990.62 989.72 989.12 988.85 988.93 989.35 990.08 991.07 992.27 993.60 995.01 996.42 997.79 999.07 1000.24 1001.29 1002.22 1003.07 1003.85 1004.61 1005.38
1004.98 1004.88 1004.74 1004.55 1004.34 1004.11 1003.89 1003.66 1003.45 1003.23 1002.99 1002.70 1002.34 1001.87 1001.27 1000.51 999.59 998.51 997.29 995.98 994.62 993.29 992.04 990.95 990.08 989.47 989.17 989.20 989.54 990.17 991.04 992.11 993.31 994.58 995.87 997.12 998.31 999.40 1000.40 1001.31 1002.16 1002.97 1003.78 1004.61
1004.79 1004.70 1004.57 1004.39 1004.19 1003.96 1003.73 1003.50 1003.28 1003.05 1002.81 1002.53 1002.18 1001.75 1001.20 1000.51 999.68 998.71 997.61 996.43 995.21 993.99 992.85 991.83 991.01 990.41 990.07 990.02 990.25 990.73 991.43 992.31 993.32 994.40 995.52 996.62 997.69 998.70 999.65 1000.54 1001.41 1002.26 1003.13 1004.06
1004.61 1004.52 1004.37 1004.18 1003.97 1003.73 1003.49 1003.25 1003.02 1002.80 1002.56 1002.31 1002.00 1001.63 1001.17 1000.59 999.90 999.09 998.17 997.17 996.12 995.07 994.07 993.16 992.40 991.82 991.46 991.32 991.42 991.73 992.24 992.91 993.70 994.58 995.50 996.44 997.38 998.30 999.20 1000.09 1000.98 1001.89 1002.84 1003.84
Thickness
5714 5724 5729 5731 5733 5736 5730 5726 5718 5722 5718 5717 5721 5725 5726 5726 5724 5719 5716 5715 5714 5712 5711 5711 5710 5709 5710 5710 5709 5708 5706 5704 5703 5703 5703 5702 5701 5700 5698 5697 5696 5695 5694 5692
5698 5713 5719 5717 5722 5725 5725 5724 5721 5718 5710 5720 5720 5721 5718 5716 5714 5710 5707 5706 5705 5704 5702 5701 5700 5700 5700 5701 5701 5700 5698 5698 5698 5697 5696 5695 5694 5693 5692 5690 5689 5688 5687 5686
5681 5700 5703 5694 5705 5710 5711 5715 5715 5705 5706 5713 5707 5708 5708 5707 5705 5702 5700 5699 5696 5695 5693 5692 5692 5692 5691 5692 5693 5692 5691 5691 5690 5689 5689 5689 5688 5686 5685 5683 5682 5681 5681 5680
5674 5679 5668 5687 5711 5711 5702 5701 5707 5706 5704 5703 5699 5699 5699 5700 5696 5694 5692 5690 5689 5688 5686 5686 5686 5685 5685 5685 5685 5684 5684 5683 5683 5682 5682 5682 5681 5680 5678 5677 5676 5675 5675 5674
5664 5664 5667 5683 5693 5697 5692 5684 5692 5692 5693 5693 5692 5690 5688 5689 5688 5686 5684 5683 5681 5681 5681 5679 5679 5678 5678 5677 5677 5677 5677 5676 5677 5676 5674 5674 5673 5672 5672 5671 5670 5669 5669 5668
5657 5650 5648 5662 5683 5691 5685 5666 5679 5680 5678 5679 5681 5671 5670 5679 5679 5679 5677 5675 5673 5673 5673 5671 5671 5671 5669 5669 5669 5669 5670 5670 5670 5669 5667 5666 5666 5665 5665 5664 5664 5664 5664 5663
5648 5644 5646 5660 5674 5674 5654 5650 5668 5670 5668 5668 5666 5663 5666 5670 5670 5670 5668 5666 5666 5665 5663 5663 5663 5663 5661 5660 5661 5662 5664 5663 5663 5661 5660 5660 5659 5659 5658 5658 5658 5658 5658 5657
5642 5635 5632 5653 5657 5648 5643 5653 5657 5660 5659 5658 5658 5659 5660 5660 5659 5659 5658 5658 5658 5657 5656 5656 5656 5655 5653 5653 5655 5656 5656 5656 5655 5654 5654 5654 5652 5652 5652 5651 5650 5651 5650 5649
5630 5626 5633 5642 5642 5645 5647 5645 5647 5649 5651 5650 5649 5649 5650 5650 5650 5650 5650 5649 5650 5649 5648 5649 5649 5648 5646 5647 5649 5649 5648 5648 5647 5647 5647 5647 5646 5645 5645 5644 5644 5644 5643 5642
5621 5622 5627 5632 5635 5636 5638 5637 5639 5641 5642 5642 5640 5641 5640 5640 5640 5640 5640 5640 5641 5641 5641 5641 5643 5643 5642 5643 5643 5642 5641 5640 5641 5640 5641 5641 5639 5640 5640 5639 5638 5638 5636 5636
5610 5613 5618 5621 5623 5624 5628 5630 5631 5632 5633 5631 5631 5631 5632 5632 5632 5631 5633 5633 5633 5633 5633 5634 5636 5637 5637 5637 5637 5635 5634 5634 5634 5634 5634 5633 5633 5632 5634 5633 5632 5631 5631 5630
5599 5604 5605 5607 5614 5618 5618 5618 5620 5621 5622 5624 5623 5622 5623 5624 5624 5624 5624 5625 5626 5627 5627 5628 5629 5630 5631 5631 5631 5629 5628 5628 5628 5628 5628 5627 5627 5626 5625 5626 5625 5624 5623 5622
5597 5601 5602 5604 5608 5609 5608 5610 5612 5613 5613 5613 5614 5614 5615 5615 5616 5616 5617 5618 5619 5621 5622 5623 5624 5624 5625 5626 5625 5623 5622 5622 5623 5623 5623 5622 5621 5621 5619 5618 5617 5616 5616 5615
5593 5593 5591 5595 5597 5601 5601 5603 5606 5607 5608 5608 5607 5607 5608 5608 5609 5609 5610 5613 5614 5615 5616 5617 5617 5617 5619 5619 5618 5617 5617 5617 5617 5618 5618 5617 5617 5616 5616 5615 5612 5610 5608 5606
5585 5585 5585 5589 5591 5592 5593 5595 5596 5598 5599 5600 5600 5599 5600 5601 5601 5603 5605 5607 5608 5608 5609 5610 5610 5611 5612 5612 5611 5611 5611 5612 5612 5612 5613 5613 5613 5612 5612 5611 5609 5606 5604 5600
5579 5579 5578 5579 5580 5582 5584 5585 5586 5589 5591 5592 5592 5592 5593 5595 5596 5597 5599 5601 5601 5601 5602 5602 5603 5604 5605 5605 5604 5604 5605 5605 5605 5606 5607 5607 5607 5606 5605 5604 5603 5601 5599 5597
5569 5568 5568 5569 5571 5573 5575 5578 5579 5581 5583 5584 5585 5586 5587 5588 5589 5591 5592 5593 5593 5594 5596 5596 5597 5598 5599 5599 5598 5599 5600 5600 5598 5600 5601 5601 5600 5599 5598 5597 5596 5595 5594 5593
5564 5563 5563 5563 5564 5566 5568 5570 5573 5574 5576 5578 5579 5580 5581 5581 5582 5583 5584 5585 5587 5588 5589 5591 5591 5592 5592 5593 5593 5594 5594 5595 5594 5593 5593 5593 5592 5592 5590 5589 5588 5588 5587 5585
5558 5558 5558 5559 5559 5560 5562 5564 5566 5568 5570 5572 5572 5573 5574 5575 5575 5576 5579 5579 5579 5579 5581 5583 5582 5584 5585 5586 5585 5587 5587 5588 5587 5586 5585 5583 5583 5583 5582 5582 5581 5580 5579 5577
5553 5553 5553 5554 5555 5556 5556 5558 5559 5561 5562 5564 5565 5566 5567 5569 5570 5571 5572 5573 5573 5573 5574 5575 5575 5576 5577 5578 5577 5579 5580 5581 5580 5579 5577 5576 5576 5575 5574 5574 5573 5572 5571 5569
5547 5548 5549 5549 5549 5550 5551 5553 5554 5555 5556 5558 5559 5560 5562 5564 5566 5566 5566 5566 5567 5567 5568 5568 5568 5569 5570 5569 5570 5573 5575 5574 5572 5571 5570 5569 5568 5567 5566 5565 5564 5563 5562 5561
5543 5544 5544 5544 5544 5544 5545 5547 5548 5550 5551 5553 5555 5556 5557 5558 5560 5561 5561 5561 5562 5560 5563 5564 5564 5562 5563 5564 5567 5568 5569 5568 5566 5565 5563 5562 5560 5558 5557 5556 5556 5555 5554 5553
5539 5540 5540 5540 5540 5540 5541 5541 5543 5545 5546 5549 5550 5551 5552 5553 5555 5555 5555 5556 5558 5556 5558 5559 5558 5557 5557 5560 5561 5561 5561 5560 5558 5557 5556 5554 5553 5551 5550 5549 5548 5547 5546 5545
5535 5535 5535 5535 5536 5536 5536 5537 5539 5541 5542 5544 5546 5547 5549 5549 5550 5551 5550 5550 5551 5551 5553 5553 5551 5551 5551 5554 5554 5554 5553 5551 5550 5549 5547 5546 5545 5544 5543 5542 5541 5540 5538 5537
5531 5531 5531 5531 5532 5533 5533 5535 5536 5537 5538 5539 5541 5543 5545 5546 5545 5546 5546 5547 5546 5546 5548 5546 5545 5545 5546 5547 5547 5546 5545 5543 5542 5541 5539 5538 5537 5536 5534 5532 5531 5531 5530 5529
5527 5527 5528 5528 5529 5530 5531 5532 5532 5532 5533 5534 5535 5537 5538 5539 5540 5540 5541 5541 5541 5540 5541 5541 5541 5539 5540 5540 5538 5537 5537 5536 5534 5532 5530 5529 5527 5525 5523 5521 5521 5521 5519 5518
5524 5525 5525 5526 5527 5527 5528 5528 5527 5527 5528 5529 5529 5531 5532 5533 5533 5534 5535 5535 5535 5535 5535 5534 5534 5533 5532 5531 5530 5529 5528 5527 5526 5523 5521 5519 5517 5515 5514 5512 5510 5510 5509 5508